GW5961 Weather Reports


time (UTC)temp
C
wind
direction
speed
KPH
gust
KPH
rain 1hr
cm
rain 24hr
cm
rain mn
cm
humidity
%
barometer
mb
20260504214747 20 341 4.8 4.8 0.00 0.00 0.00 62 1010.2
20260504214244 20 341 4.8 4.8 0.00 0.00 0.00 62 1010.4
20260504213741 20 290 6.4 9.7 0.00 0.00 0.00 60 1010.3
20260504213237 20 290 6.4 9.7 0.00 0.00 0.00 60 1010.6
20260504212734 20 290 6.4 9.7 0.00 0.00 0.00 60 1010.3
20260504212231 20 324 6.4 8.0 0.00 0.00 0.00 60 1010.5
20260504211729 20 315 3.2 6.4 0.00 0.00 0.00 61 1010.5
20260504211224 20 320 8.0 8.0 0.00 0.00 0.00 61 1010.3
20260504210722 20 295 3.2 8.0 0.00 0.00 0.00 61 1010.6
20260504210219 20 295 3.2 8.0 0.00 0.00 0.00 61 1010.6
20260504205716 20 295 3.2 8.0 0.00 0.00 0.00 61 1010.4
20260504205214 20 295 3.2 8.0 0.00 0.00 0.00 61 1010.2
20260504204712 20 295 3.2 8.0 0.00 0.00 0.00 61 1010.4
20260504204210 20 295 3.2 8.0 0.00 0.00 0.00 61 1010.3
20260504203709 20 295 3.2 8.0 0.00 0.00 0.00 61 1010.4
20260504203206 20 295 3.2 8.0 0.00 0.00 0.00 61 1010.3
20260504202706 20 295 3.2 8.0 0.00 0.00 0.00 61 1010.4
20260504202203 20 295 3.2 8.0 0.00 0.00 0.00 61 1010.3
20260504201700 20 295 3.2 8.0 0.00 0.00 0.00 61 1010.2
20260504201158 21 291 4.8 9.7 0.00 0.00 0.00 58 1010.2
20260504200655 21 291 4.8 9.7 0.00 0.00 0.00 58 1010.4
20260504200151 21 322 4.8 8.0 0.00 0.00 0.00 60 1010.4
20260504195647 20 270 6.4 6.4 0.00 0.00 0.00 60 1010.3
20260504195143 20 270 6.4 6.4 0.00 0.00 0.00 60 1010.4
20260504194640 20 270 6.4 6.4 0.00 0.00 0.00 60 1010.4
20260504194137 20 270 6.4 6.4 0.00 0.00 0.00 60 1010.3
20260504193633 20 270 6.4 6.4 0.00 0.00 0.00 60 1010.3
20260504193131 20 270 6.4 6.4 0.00 0.00 0.00 60 1010.3
20260504192629 20 270 6.4 6.4 0.00 0.00 0.00 60 1010.2
20260504192127 20 270 6.4 6.4 0.00 0.00 0.00 60 1010.4
20260504191625 22 315 8.0 8.0 0.00 0.00 0.00 56 1010.4
20260504191121 22 315 8.0 8.0 0.00 0.00 0.00 56 1010.4
20260504190617 22 311 6.4 9.7 0.00 0.00 0.00 57 1010.3
20260504190114 22 314 6.4 8.0 0.00 0.00 0.00 56 1010.2
20260504185610 22 307 3.2 6.4 0.00 0.00 0.00 53 1010.1
20260504185107 22 307 3.2 6.4 0.00 0.00 0.00 53 1010.2
20260504184603 22 289 0.0 6.4 0.00 0.00 0.00 54 1010.1
20260504184058 22 290 8.0 8.0 0.00 0.00 0.00 53 1010.3
20260504183555 22 281 3.2 4.8 0.00 0.00 0.00 55 1010.4
20260504183053 22 296 4.8 6.4 0.00 0.00 0.00 55 1010.2
20260504182550 22 13 6.4 9.7 0.00 0.00 0.00 52 1010.3
20260504182047 21 357 3.2 9.7 0.00 0.00 0.00 54 1010.4
20260504181544 21 2 3.2 9.7 0.00 0.00 0.00 52 1010.6
20260504181042 21 354 4.8 6.4 0.00 0.00 0.00 58 1010.4
20260504180541 21 25 3.2 6.4 0.00 0.00 0.00 56 1010.3
20260504180040 21 344 8.0 9.7 0.00 0.00 0.00 51 1010.5
20260504175536 21 315 6.4 11.3 0.00 0.00 0.00 49 1010.3
20260504175033 22 344 9.7 12.9 0.00 0.00 0.00 49 1010.6
20260504174531 21 348 3.2 4.8 0.00 0.00 0.00 47 1010.4
20260504174028 21 340 4.8 9.7 0.00 0.00 0.00 52 1010.4
20260504173525 21 28 1.6 3.2 0.00 0.00 0.00 57 1010.4
20260504173022 21 357 3.2 4.8 0.00 0.00 0.00 54 1010.5
20260504172518 21 3 3.2 4.8 0.00 0.00 0.00 53 1010.6
20260504172015 20 356 1.6 3.2 0.00 0.00 0.00 57 1010.6
20260504171512 20 347 1.6 4.8 0.00 0.00 0.00 55 1010.6
20260504171009 20 359 3.2 4.8 0.00 0.00 0.00 56 1010.7
20260504170504 20 342 8.0 9.7 0.00 0.00 0.00 53 1010.6
20260504160425 21 292 3.2 3.2 0.00 0.00 0.00 52 1010.4
20260504150848 20 209 0.0 0.0 0.00 0.00 0.00 64 1010.1
20260504150345 12 243 4.8 6.4 0.00 0.00 0.00 76 1009.9
20260504141315 12 243 4.8 6.4 0.00 0.00 0.00 76 1009.5
20260504140812 12 243 4.8 6.4 0.00 0.00 0.00 76 1009.6
20260504140307 11 260 3.2 6.4 0.00 0.00 0.00 75 1009.6
20260504130736 9 221 3.2 4.8 0.00 0.00 0.00 80 1009.3
20260504130232 9 221 3.2 4.8 0.00 0.00 0.00 80 1009.2
20260504120156 10 211 4.8 4.8 0.00 0.00 0.00 78 1009.2
20260504110623 10 225 3.2 3.2 0.00 0.00 0.00 77 1009.2
20260504110119 10 225 3.2 3.2 0.00 0.00 0.00 77 1009.1
20260504100545 11 224 0.0 1.6 0.00 0.00 0.00 71 1009.0
20260504081938 16 205 4.8 6.4 0.00 0.00 0.00 48 1008.7
20260504081436 16 239 3.2 4.8 0.00 0.00 0.00 49 1008.8
20260504080931 16 222 3.2 6.4 0.00 0.00 0.00 48 1008.9
20260504080428 17 247 3.2 4.8 0.00 0.00 0.00 48 1008.8
20260504070356 11 251 3.2 6.4 0.00 0.00 0.00 75 1009.2
20260504050743 15 210 3.2 4.8 0.00 0.00 0.00 68 1009.6
20260504050241 15 201 4.8 4.8 0.00 0.00 0.00 69 1009.5
20260504045739 15 215 3.2 4.8 0.00 0.00 0.00 69 1009.2
20260504045238 15 192 4.8 4.8 0.00 0.00 0.00 70 1009.4
20260504044737 14 206 3.2 4.8 0.00 0.00 0.00 69 1009.4
20260504044234 14 221 3.2 3.2 0.00 0.00 0.00 70 1009.3
20260504043731 15 201 1.6 4.8 0.00 0.00 0.00 66 1009.3
20260504043228 15 326 0.0 0.0 0.00 0.00 0.00 64 1009.2
20260504042726 16 326 1.6 4.8 0.00 0.00 0.00 65 1009.4
20260504042222 16 226 1.6 1.6 0.00 0.00 0.00 58 1009.3
20260504041718 16 227 1.6 3.2 0.00 0.00 0.00 61 1009.3
20260504041214 16 202 1.6 3.2 0.00 0.00 0.00 63 1009.0
20260504040710 16 214 3.2 4.8 0.00 0.00 0.00 65 1009.4
20260504040208 15 202 3.2 4.8 0.00 0.00 0.00 67 1009.3
20260504035704 16 213 3.2 4.8 0.00 0.00 0.00 67 1009.1
20260504035201 16 208 4.8 4.8 0.00 0.00 0.00 66 1009.0
20260504034659 16 217 3.2 4.8 0.00 0.00 0.00 68 1009.2
20260504034155 16 217 3.2 6.4 0.00 0.00 0.00 67 1009.2
20260504033653 17 223 4.8 4.8 0.00 0.00 0.00 66 1009.0
20260504033150 17 203 1.6 3.2 0.00 0.00 0.00 62 1009.0
20260504032647 17 201 3.2 3.2 0.00 0.00 0.00 60 1009.0
20260504032144 18 211 1.6 3.2 0.00 0.00 0.00 61 1008.9
20260504031641 18 206 1.6 3.2 0.00 0.00 0.00 61 1008.9
20260504031137 19 209 1.6 3.2 0.00 0.00 0.00 60 1009.1
20260504030634 20 209 1.6 3.2 0.00 0.00 0.00 58 1009.1
20260504030131 20 221 0.0 3.2 0.00 0.00 0.00 57 1008.9
20260504025628 20 221 1.6 3.2 0.00 0.00 0.00 55 1009.2
20260504025125 21 210 3.2 3.2 0.00 0.00 0.00 56 1009.2
20260504024622 21 282 0.0 0.0 0.00 0.00 0.00 49 1009.4
20260504024118 21 282 1.6 3.2 0.00 0.00 0.00 49 1009.2
20260504023615 21 322 0.0 0.0 0.00 0.00 0.00 46 1009.3
20260504023111 22 322 0.0 0.0 0.00 0.00 0.00 45 1009.2
20260504022608 22 322 0.0 3.2 0.00 0.00 0.00 41 1009.4
20260504022103 22 326 0.0 0.0 0.00 0.00 0.00 42 1009.4
20260504021602 23 326 0.0 0.0 0.00 0.00 0.00 38 1009.4
20260504021058 23 326 0.0 1.6 0.00 0.00 0.00 40 1009.5
20260504020555 23 321 1.6 3.2 0.00 0.00 0.00 41 1009.6
20260504020051 24 327 4.8 6.4 0.00 0.00 0.00 42 1009.6
20260504015548 25 229 1.6 1.6 0.00 0.00 0.00 36 1009.5
20260504015044 26 229 1.6 1.6 0.00 0.00 0.00 35 1009.5
20260504014540 27 229 0.0 0.0 0.00 0.00 0.00 36 1009.6
20260504014038 26 229 0.0 0.0 0.00 0.00 0.00 36 1009.7
20260504013535 26 219 0.0 1.6 0.00 0.00 0.00 38 1009.8
20260504013032 25 212 1.6 3.2 0.00 0.00 0.00 34 1009.8
20260504012529 25 158 3.2 3.2 0.00 0.00 0.00 38 1009.8
20260504012027 25 160 1.6 3.2 0.00 0.00 0.00 40 1010.1
20260504011523 25 160 1.6 3.2 0.00 0.00 0.00 33 1010.1
20260504011020 25 169 3.2 3.2 0.00 0.00 0.00 33 1010.3
20260504010515 24 343 0.0 0.0 0.00 0.00 0.00 42 1010.2
20260504010011 24 334 0.0 3.2 0.00 0.00 0.00 39 1010.1
20260504005509 24 331 0.0 3.2 0.00 0.00 0.00 37 1010.4
20260504005006 24 339 1.6 3.2 0.00 0.00 0.00 36 1010.6
20260504004504 23 333 3.2 3.2 0.00 0.00 0.00 37 1010.5
20260504004000 23 335 3.2 6.4 0.00 0.00 0.00 36 1010.5
20260504003456 23 312 1.6 6.4 0.00 0.00 0.00 42 1010.5
20260504002953 23 334 3.2 4.8 0.00 0.00 0.00 38 1010.4
20260504002450 23 330 3.2 4.8 0.00 0.00 0.00 40 1010.6
20260504001948 23 342 3.2 6.4 0.00 0.00 0.00 39 1010.8
20260504001445 23 355 4.8 6.4 0.00 0.00 0.00 39 1010.7
20260504000942 23 347 4.8 6.4 0.00 0.00 0.00 40 1010.8
20260504000439 23 334 4.8 9.7 0.00 0.00 0.00 42 1010.8
20260503235936 23 349 6.4 9.7 0.00 0.00 0.00 42 1010.9
20260503235433 23 341 3.2 6.4 0.00 0.00 0.00 41 1010.9
20260503234931 23 330 3.2 6.4 0.00 0.00 0.00 37 1010.9
20260503234428 23 349 6.4 9.7 0.00 0.00 0.00 40 1011.0
20260503233926 23 1 4.8 6.4 0.00 0.00 0.00 39 1010.9
20260503233423 23 337 4.8 6.4 0.00 0.00 0.00 41 1011.1
20260503232919 23 6 6.4 6.4 0.00 0.00 0.00 45 1011.1
20260503232416 23 359 6.4 9.7 0.00 0.00 0.00 49 1011.1
20260503231914 23 13 6.4 9.7 0.00 0.00 0.00 44 1011.3
20260503231411 23 351 6.4 6.4 0.00 0.00 0.00 44 1011.2
20260503230907 23 350 3.2 9.7 0.00 0.00 0.00 44 1011.3
20260503230404 23 339 1.6 4.8 0.00 0.00 0.00 46 1011.4
20260503225902 23 337 6.4 6.4 0.00 0.00 0.00 43 1011.4
20260503225357 23 357 3.2 4.8 0.00 0.00 0.00 46 1011.5
20260503224854 23 356 3.2 6.4 0.00 0.00 0.00 41 1011.5
20260503224351 23 13 3.2 4.8 0.00 0.00 0.00 52 1011.6
20260503223849 23 10 4.8 4.8 0.00 0.00 0.00 45 1011.8
20260503223346 23 11 3.2 4.8 0.00 0.00 0.00 46 1011.7
20260503222841 23 355 6.4 6.4 0.00 0.00 0.00 46 1011.8
20260503222340 23 334 6.4 6.4 0.00 0.00 0.00 43 1011.9
20260503221838 23 333 1.6 4.8 0.00 0.00 0.00 42 1012.1
20260503221337 22 322 1.6 4.8 0.00 0.00 0.00 51 1012.1
20260503220832 22 11 3.2 6.4 0.00 0.00 0.00 52 1012.1
20260503220329 22 347 3.2 9.7 0.00 0.00 0.00 53 1012.3
20260503215826 22 316 3.2 9.7 0.00 0.00 0.00 46 1012.3
20260503215323 22 317 6.4 9.7 0.00 0.00 0.00 50 1012.4